| time (UTC) | temp C | wind direction | speed KPH | gust KPH | rain 1hr cm | rain 24hr cm | rain mn cm | humidity % | barometer mb |
| 20260509045010 | 7 | 54 | 3.2 | 8.0 | 0.00 | 0.03 | 0.00 | 94 | 1022.1 |
| 20260509044509 | 7 | 80 | 1.6 | 4.8 | 0.00 | 0.03 | 0.00 | 94 | 1022.0 |
| 20260509044011 | 7 | 94 | 0.0 | 4.8 | 0.00 | 0.03 | 0.00 | 94 | 1022.0 |
| 20260509043509 | 7 | 63 | 0.0 | 3.2 | 0.00 | 0.03 | 0.00 | 94 | 1022.0 |
| 20260509043007 | 7 | 62 | 0.0 | 3.2 | 0.00 | 0.03 | 0.00 | 94 | 1021.9 |
| 20260509042507 | 7 | 63 | 0.0 | 4.8 | 0.00 | 0.03 | 0.00 | 93 | 1021.8 |
| 20260509042010 | 7 | 63 | 0.0 | 6.4 | 0.00 | 0.03 | 0.00 | 93 | 1021.7 |
| 20260509041507 | 7 | 69 | 0.0 | 6.4 | 0.00 | 0.03 | 0.00 | 93 | 1021.7 |
| 20260509041005 | 6 | 71 | 1.6 | 4.8 | 0.00 | 0.03 | 0.00 | 93 | 1021.7 |
| 20260509040503 | 6 | 74 | 1.6 | 4.8 | 0.00 | 0.03 | 0.00 | 93 | 1021.6 |
| 20260509040003 | 6 | 69 | 0.0 | 6.4 | 0.00 | 0.03 | 0.00 | 93 | 1021.7 |
| 20260509035502 | 6 | 69 | 0.0 | 6.4 | 0.00 | 0.03 | 0.00 | 93 | 1021.6 |
| 20260509035001 | 6 | 78 | 0.0 | 0.0 | 0.00 | 0.03 | 0.00 | 93 | 1021.7 |
| 20260509034501 | 6 | 79 | 0.0 | 3.2 | 0.00 | 0.03 | 0.00 | 93 | 1021.6 |
| 20260509034100 | 6 | 77 | 0.0 | 3.2 | 0.00 | 0.03 | 0.00 | 93 | 1021.7 |
| 20260509033603 | 6 | 331 | 0.0 | 3.2 | 0.00 | 0.03 | 0.00 | 93 | 1021.7 |
| 20260509033100 | 6 | 63 | 0.0 | 0.0 | 0.00 | 0.03 | 0.00 | 93 | 1021.6 |
| 20260509033002 | 6 | 63 | 0.0 | 0.0 | 0.00 | 0.03 | 0.00 | 93 | 1021.7 |
| 20260509032559 | 6 | 63 | 0.0 | 0.0 | 0.00 | 0.03 | 0.00 | 93 | 1021.7 |
| 20260509032058 | 6 | 63 | 0.0 | 0.0 | 0.00 | 0.03 | 0.00 | 93 | 1021.6 |
| 20260509031602 | 6 | 74 | 0.0 | 3.2 | 0.00 | 0.03 | 0.00 | 94 | 1021.6 |
| 20260509031058 | 6 | 76 | 0.0 | 3.2 | 0.00 | 0.03 | 0.00 | 94 | 1021.7 |
| 20260509030558 | 6 | 76 | 0.0 | 3.2 | 0.00 | 0.03 | 0.00 | 94 | 1021.8 |
| 20260509030113 | 6 | 78 | 0.0 | 3.2 | 0.00 | 0.03 | 0.00 | 94 | 1021.8 |
| 20260509025557 | 6 | 76 | 0.0 | 0.0 | 0.00 | 0.03 | 0.00 | 94 | 1021.8 |
| 20260509025101 | 6 | 77 | 0.0 | 3.2 | 0.00 | 0.03 | 0.00 | 94 | 1021.7 |
| 20260509024601 | 6 | 78 | 0.0 | 4.8 | 0.00 | 0.03 | 0.00 | 94 | 1021.8 |
| 20260509024057 | 6 | 68 | 0.0 | 3.2 | 0.00 | 0.03 | 0.00 | 94 | 1021.8 |
| 20260509023559 | 6 | 66 | 0.0 | 0.0 | 0.00 | 0.03 | 0.00 | 94 | 1021.8 |
| 20260509023059 | 6 | 66 | 0.0 | 3.2 | 0.00 | 0.03 | 0.00 | 94 | 1021.9 |
| 20260509022556 | 6 | 66 | 0.0 | 3.2 | 0.00 | 0.03 | 0.00 | 94 | 1021.9 |
| 20260509022059 | 6 | 66 | 0.0 | 3.2 | 0.00 | 0.03 | 0.00 | 94 | 1021.9 |
| 20260509021557 | 6 | 67 | 0.0 | 3.2 | 0.00 | 0.03 | 0.00 | 94 | 1022.0 |
| 20260509021058 | 6 | 67 | 0.0 | 0.0 | 0.00 | 0.03 | 0.00 | 94 | 1022.0 |
| 20260509020555 | 6 | 67 | 0.0 | 3.2 | 0.00 | 0.03 | 0.00 | 94 | 1022.0 |
| 20260509020105 | 6 | 68 | 0.0 | 3.2 | 0.00 | 0.03 | 0.00 | 94 | 1021.8 |
| 20260509015555 | 6 | 68 | 0.0 | 3.2 | 0.00 | 0.03 | 0.00 | 94 | 1021.9 |
| 20260509015055 | 6 | 69 | 0.0 | 3.2 | 0.00 | 0.03 | 0.00 | 94 | 1021.8 |
| 20260509014556 | 6 | 69 | 0.0 | 3.2 | 0.00 | 0.03 | 0.00 | 94 | 1021.8 |
| 20260509014054 | 6 | 68 | 0.0 | 6.4 | 0.00 | 0.03 | 0.00 | 94 | 1021.8 |
| 20260509013554 | 6 | 67 | 0.0 | 6.4 | 0.00 | 0.03 | 0.00 | 94 | 1021.8 |
| 20260509013058 | 6 | 61 | 1.6 | 4.8 | 0.00 | 0.03 | 0.00 | 94 | 1021.7 |
| 20260509012553 | 6 | 67 | 1.6 | 4.8 | 0.00 | 0.03 | 0.00 | 94 | 1021.8 |
| 20260509012052 | 6 | 34 | 1.6 | 4.8 | 0.00 | 0.03 | 0.00 | 95 | 1021.7 |
| 20260509011556 | 6 | 57 | 0.0 | 4.8 | 0.00 | 0.03 | 0.00 | 95 | 1021.7 |
| 20260509011052 | 6 | 336 | 0.0 | 4.8 | 0.00 | 0.03 | 0.00 | 95 | 1021.7 |
| 20260509010551 | 6 | 66 | 1.6 | 4.8 | 0.00 | 0.03 | 0.00 | 96 | 1021.7 |
| 20260509010051 | 6 | 67 | 0.0 | 4.8 | 0.00 | 0.03 | 0.00 | 96 | 1021.7 |
| 20260509005550 | 6 | 69 | 1.6 | 4.8 | 0.00 | 0.03 | 0.00 | 97 | 1021.7 |
| 20260509005051 | 6 | 70 | 0.0 | 4.8 | 0.00 | 0.03 | 0.00 | 97 | 1021.7 |
| 20260509004557 | 6 | 70 | 1.6 | 4.8 | 0.00 | 0.03 | 0.00 | 97 | 1021.6 |
| 20260509004049 | 6 | 71 | 0.0 | 4.8 | 0.00 | 0.03 | 0.00 | 97 | 1021.7 |
| 20260509003549 | 6 | 74 | 0.0 | 4.8 | 0.00 | 0.03 | 0.00 | 98 | 1021.8 |
| 20260509003054 | 6 | 64 | 1.6 | 4.8 | 0.00 | 0.03 | 0.00 | 98 | 1021.7 |
| 20260509002547 | 6 | 63 | 1.6 | 4.8 | 0.00 | 0.03 | 0.00 | 97 | 1021.7 |
| 20260509002048 | 6 | 73 | 1.6 | 4.8 | 0.00 | 0.03 | 0.00 | 97 | 1021.8 |
| 20260509001546 | 6 | 84 | 0.0 | 4.8 | 0.00 | 0.03 | 0.00 | 97 | 1021.9 |
| 20260509001045 | 6 | 81 | 0.0 | 4.8 | 0.00 | 0.03 | 0.00 | 97 | 1021.8 |
| 20260509000545 | 6 | 81 | 0.0 | 3.2 | 0.00 | 0.03 | 0.00 | 97 | 1021.8 |
| 20260509000044 | 6 | 82 | 0.0 | 0.0 | 0.00 | 0.03 | 0.00 | 98 | 1021.8 |
| 20260508235544 | 6 | 82 | 0.0 | 0.0 | 0.00 | 0.03 | 0.00 | 98 | 1022.0 |
| 20260508235045 | 6 | 82 | 0.0 | 0.0 | 0.00 | 0.03 | 0.00 | 98 | 1022.0 |
| 20260508234544 | 6 | 83 | 0.0 | 3.2 | 0.00 | 0.03 | 0.00 | 98 | 1022.0 |
| 20260508234043 | 6 | 83 | 0.0 | 3.2 | 0.00 | 0.03 | 0.00 | 98 | 1022.0 |
| 20260508233544 | 6 | 84 | 0.0 | 3.2 | 0.00 | 0.03 | 0.00 | 97 | 1021.9 |
| 20260508233043 | 6 | 91 | 1.6 | 6.4 | 0.00 | 0.03 | 0.00 | 97 | 1022.0 |
| 20260508232544 | 6 | 94 | 1.6 | 6.4 | 0.00 | 0.03 | 0.00 | 97 | 1022.0 |
| 20260508232041 | 6 | 94 | 1.6 | 4.8 | 0.00 | 0.03 | 0.00 | 98 | 1022.0 |
| 20260508231540 | 6 | 62 | 0.0 | 1.6 | 0.00 | 0.03 | 0.00 | 98 | 1022.1 |
| 20260508231040 | 6 | 61 | 0.0 | 3.2 | 0.00 | 0.03 | 0.00 | 98 | 1021.9 |
| 20260508230541 | 6 | 61 | 1.6 | 6.4 | 0.00 | 0.03 | 0.00 | 98 | 1022.1 |
| 20260508230040 | 6 | 350 | 0.0 | 6.4 | 0.00 | 0.03 | 0.00 | 98 | 1022.0 |
| 20260508225539 | 6 | 81 | 0.0 | 4.8 | 0.00 | 0.03 | 0.00 | 98 | 1022.1 |
| 20260508225041 | 6 | 96 | 0.0 | 4.8 | 0.00 | 0.03 | 0.00 | 97 | 1022.1 |
| 20260508224549 | 6 | 96 | 1.6 | 4.8 | 0.00 | 0.03 | 0.00 | 98 | 1022.1 |
| 20260508224037 | 6 | 89 | 0.0 | 4.8 | 0.00 | 0.03 | 0.00 | 97 | 1022.1 |
| 20260508223536 | 6 | 87 | 0.0 | 4.8 | 0.00 | 0.03 | 0.00 | 98 | 1022.1 |
| 20260508223046 | 6 | 88 | 0.0 | 4.8 | 0.00 | 0.03 | 0.00 | 98 | 1022.1 |
| 20260508222535 | 6 | 97 | 0.0 | 9.7 | 0.00 | 0.03 | 0.00 | 98 | 1022.2 |
| 20260508222034 | 6 | 97 | 3.2 | 9.7 | 0.00 | 0.03 | 0.00 | 98 | 1022.1 |
| 20260508221534 | 6 | 103 | 3.2 | 6.4 | 0.00 | 0.03 | 0.00 | 98 | 1022.2 |
| 20260508221033 | 6 | 98 | 0.0 | 4.8 | 0.00 | 0.03 | 0.00 | 98 | 1022.1 |
| 20260508220532 | 6 | 98 | 1.6 | 6.4 | 0.00 | 0.03 | 0.00 | 98 | 1022.1 |
| 20260508220034 | 6 | 98 | 3.2 | 6.4 | 0.00 | 0.03 | 0.00 | 98 | 1022.1 |
| 20260508215532 | 6 | 80 | 1.6 | 6.4 | 0.00 | 0.03 | 0.03 | 98 | 1022.2 |
| 20260508215032 | 6 | 94 | 3.2 | 6.4 | 0.00 | 0.03 | 0.03 | 98 | 1022.2 |
| 20260508214531 | 6 | 100 | 0.0 | 4.8 | 0.00 | 0.03 | 0.03 | 97 | 1022.1 |
| 20260508214031 | 6 | 89 | 1.6 | 6.4 | 0.00 | 0.03 | 0.03 | 97 | 1022.0 |
| 20260508213531 | 6 | 87 | 3.2 | 6.4 | 0.00 | 0.03 | 0.03 | 97 | 1022.2 |
| 20260508213031 | 6 | 65 | 0.0 | 4.8 | 0.00 | 0.03 | 0.03 | 97 | 1022.2 |
| 20260508212531 | 6 | 63 | 0.0 | 3.2 | 0.00 | 0.03 | 0.03 | 97 | 1022.1 |
| 20260508212033 | 6 | 53 | 0.0 | 6.4 | 0.00 | 0.03 | 0.03 | 97 | 1022.2 |
| 20260508211530 | 6 | 53 | 0.0 | 6.4 | 0.00 | 0.03 | 0.03 | 97 | 1022.2 |
| 20260508211030 | 6 | 90 | 1.6 | 4.8 | 0.00 | 0.03 | 0.03 | 97 | 1022.1 |
| 20260508210530 | 6 | 87 | 1.6 | 4.8 | 0.00 | 0.03 | 0.03 | 97 | 1022.1 |
| 20260508210031 | 6 | 112 | 0.0 | 4.8 | 0.00 | 0.03 | 0.03 | 97 | 1022.2 |
| 20260508205531 | 6 | 107 | 1.6 | 4.8 | 0.00 | 0.03 | 0.03 | 97 | 1022.2 |
| 20260508205030 | 6 | 112 | 0.0 | 0.0 | 0.00 | 0.03 | 0.03 | 97 | 1022.1 |
| 20260508204532 | 6 | 111 | 0.0 | 0.0 | 0.00 | 0.03 | 0.03 | 97 | 1022.1 |
| 20260508204029 | 6 | 112 | 0.0 | 4.8 | 0.00 | 0.03 | 0.03 | 97 | 1022.1 |
| 20260508203528 | 6 | 105 | 0.0 | 8.0 | 0.00 | 0.03 | 0.03 | 97 | 1022.1 |
| 20260508203028 | 6 | 100 | 1.6 | 8.0 | 0.00 | 0.03 | 0.03 | 97 | 1022.0 |
| 20260508202528 | 6 | 105 | 1.6 | 6.4 | 0.00 | 0.03 | 0.03 | 97 | 1022.0 |
| 20260508202029 | 6 | 107 | 0.0 | 12.9 | 0.00 | 0.03 | 0.03 | 97 | 1022.0 |
| 20260508201530 | 6 | 96 | 3.2 | 12.9 | 0.00 | 0.03 | 0.03 | 97 | 1021.9 |
| 20260508201029 | 6 | 168 | 1.6 | 8.0 | 0.00 | 0.03 | 0.03 | 97 | 1021.8 |
| 20260508200526 | 6 | 113 | 1.6 | 6.4 | 0.00 | 0.03 | 0.03 | 97 | 1021.7 |
| 20260508200027 | 6 | 89 | 3.2 | 6.4 | 0.00 | 0.03 | 0.03 | 97 | 1021.6 |
| 20260508195530 | 6 | 102 | 3.2 | 9.7 | 0.00 | 0.03 | 0.03 | 97 | 1021.6 |
| 20260508195025 | 6 | 91 | 3.2 | 11.3 | 0.00 | 0.03 | 0.03 | 97 | 1021.5 |
| 20260508194533 | 6 | 93 | 1.6 | 6.4 | 0.00 | 0.03 | 0.03 | 97 | 1021.6 |
| 20260508194024 | 6 | 95 | 1.6 | 4.8 | 0.00 | 0.03 | 0.03 | 97 | 1021.6 |
| 20260508193524 | 6 | 97 | 1.6 | 4.8 | 0.00 | 0.03 | 0.03 | 97 | 1021.5 |
| 20260508193024 | 6 | 84 | 1.6 | 6.4 | 0.00 | 0.03 | 0.03 | 97 | 1021.5 |
| 20260508192528 | 6 | 86 | 1.6 | 4.8 | 0.00 | 0.03 | 0.03 | 97 | 1021.4 |
| 20260508192024 | 6 | 60 | 1.6 | 6.4 | 0.00 | 0.03 | 0.03 | 97 | 1021.4 |
| 20260508191532 | 6 | 43 | 1.6 | 6.4 | 0.00 | 0.03 | 0.03 | 97 | 1021.3 |
| 20260508191023 | 6 | 76 | 1.6 | 4.8 | 0.00 | 0.03 | 0.03 | 97 | 1021.5 |
| 20260508190623 | 6 | 76 | 0.0 | 4.8 | 0.00 | 0.03 | 0.03 | 97 | 1021.4 |
| 20260508190024 | 6 | 116 | 0.0 | 1.6 | 0.00 | 0.03 | 0.03 | 96 | 1021.4 |
| 20260508185522 | 6 | 116 | 0.0 | 3.2 | 0.00 | 0.05 | 0.03 | 96 | 1021.4 |
| 20260508185022 | 6 | 98 | 0.0 | 4.8 | 0.00 | 0.05 | 0.03 | 96 | 1021.3 |
| 20260508184524 | 6 | 98 | 0.0 | 4.8 | 0.00 | 0.05 | 0.03 | 96 | 1021.3 |
| 20260508184022 | 6 | 96 | 0.0 | 3.2 | 0.00 | 0.05 | 0.03 | 96 | 1021.3 |
| 20260508183522 | 6 | 96 | 0.0 | 3.2 | 0.00 | 0.05 | 0.03 | 95 | 1021.2 |
| 20260508183028 | 6 | 80 | 0.0 | 1.6 | 0.00 | 0.05 | 0.03 | 95 | 1021.2 |
| 20260508182521 | 6 | 80 | 0.0 | 1.6 | 0.00 | 0.05 | 0.03 | 95 | 1021.1 |
| 20260508182020 | 7 | 79 | 0.0 | 1.6 | 0.00 | 0.05 | 0.03 | 95 | 1021.1 |
| 20260508181520 | 7 | 77 | 0.0 | 3.2 | 0.00 | 0.05 | 0.03 | 95 | 1021.1 |
| 20260508181021 | 7 | 77 | 0.0 | 3.2 | 0.00 | 0.05 | 0.03 | 95 | 1021.1 |
| 20260508180520 | 7 | 90 | 0.0 | 0.0 | 0.00 | 0.05 | 0.03 | 95 | 1021.0 |
| 20260508180022 | 7 | 78 | 0.0 | 3.2 | 0.00 | 0.05 | 0.03 | 94 | 1021.0 |
| 20260508175520 | 7 | 81 | 0.0 | 4.8 | 0.00 | 0.05 | 0.03 | 94 | 1021.0 |
| 20260508175020 | 7 | 61 | 1.6 | 4.8 | 0.00 | 0.05 | 0.03 | 95 | 1021.1 |
| 20260508174520 | 7 | 49 | 0.0 | 4.8 | 0.00 | 0.05 | 0.03 | 95 | 1020.9 |
| 20260508174022 | 7 | 101 | 1.6 | 4.8 | 0.00 | 0.05 | 0.03 | 95 | 1021.1 |
| 20260508173519 | 7 | 83 | 0.0 | 3.2 | 0.00 | 0.05 | 0.03 | 95 | 1021.0 |
| 20260508173020 | 7 | 64 | 0.0 | 6.4 | 0.00 | 0.05 | 0.03 | 94 | 1020.9 |
| 20260508172518 | 7 | 70 | 1.6 | 6.4 | 0.00 | 0.05 | 0.03 | 94 | 1020.9 |
| 20260508172018 | 7 | 94 | 1.6 | 6.4 | 0.00 | 0.05 | 0.03 | 94 | 1020.9 |
| 20260508171518 | 8 | 108 | 1.6 | 4.8 | 0.00 | 0.05 | 0.03 | 94 | 1020.9 |
| 20260508171017 | 8 | 67 | 0.0 | 4.8 | 0.00 | 0.05 | 0.03 | 94 | 1021.0 |
| 20260508170517 | 8 | 65 | 0.0 | 6.4 | 0.00 | 0.05 | 0.03 | 94 | 1020.9 |
| 20260508170019 | 8 | 76 | 0.0 | 6.4 | 0.00 | 0.05 | 0.03 | 94 | 1020.9 |
| 20260508165619 | 8 | 39 | 0.0 | 3.2 | 0.00 | 0.08 | 0.03 | 94 | 1020.8 |
| 20260508165023 | 8 | 100 | 0.0 | 6.4 | 0.00 | 0.08 | 0.03 | 94 | 1020.8 |
| 20260508164517 | 8 | 102 | 1.6 | 6.4 | 0.00 | 0.08 | 0.03 | 93 | 1020.7 |
| 20260508164017 | 8 | 102 | 1.6 | 6.4 | 0.00 | 0.08 | 0.03 | 93 | 1020.9 |
| 20260508163516 | 8 | 74 | 1.6 | 6.4 | 0.00 | 0.08 | 0.03 | 93 | 1020.8 |
| 20260508163027 | 8 | 103 | 0.0 | 6.4 | 0.00 | 0.08 | 0.03 | 93 | 1020.8 |
| 20260508162519 | 8 | 85 | 0.0 | 6.4 | 0.00 | 0.08 | 0.03 | 93 | 1020.9 |
| 20260508162016 | 8 | 103 | 1.6 | 4.8 | 0.00 | 0.08 | 0.03 | 93 | 1020.9 |
| 20260508161515 | 8 | 93 | 1.6 | 4.8 | 0.00 | 0.08 | 0.03 | 93 | 1021.1 |
| 20260508161016 | 8 | 97 | 1.6 | 6.4 | 0.00 | 0.08 | 0.03 | 92 | 1021.0 |
| 20260508160515 | 8 | 98 | 3.2 | 6.4 | 0.00 | 0.08 | 0.03 | 92 | 1020.9 |
| 20260508160021 | 8 | 78 | 0.0 | 6.4 | 0.00 | 0.08 | 0.03 | 92 | 1021.0 |
| 20260508155518 | 8 | 76 | 1.6 | 4.8 | 0.00 | 0.08 | 0.03 | 92 | 1021.1 |
| 20260508155014 | 8 | 58 | 1.6 | 6.4 | 0.00 | 0.08 | 0.03 | 94 | 1020.9 |
| 20260508154516 | 8 | 69 | 1.6 | 6.4 | 0.00 | 0.08 | 0.03 | 95 | 1021.0 |
| 20260508154018 | 7 | 81 | 1.6 | 6.4 | 0.00 | 0.08 | 0.03 | 95 | 1021.0 |
| 20260508153515 | 7 | 89 | 0.0 | 6.4 | 0.00 | 0.08 | 0.03 | 95 | 1021.0 |
| 20260508153011 | 7 | 82 | 1.6 | 4.8 | 0.00 | 0.08 | 0.03 | 95 | 1020.9 |
| 20260508152513 | 7 | 63 | 0.0 | 6.4 | 0.00 | 0.08 | 0.03 | 95 | 1021.0 |
| 20260508152014 | 7 | 49 | 0.0 | 4.8 | 0.00 | 0.08 | 0.03 | 95 | 1021.0 |
| 20260508151512 | 7 | 59 | 0.0 | 4.8 | 0.00 | 0.08 | 0.03 | 95 | 1021.2 |
| 20260508151013 | 7 | 133 | 0.0 | 3.2 | 0.00 | 0.08 | 0.03 | 96 | 1021.3 |
| 20260508150510 | 7 | 134 | 0.0 | 3.2 | 0.00 | 0.08 | 0.03 | 96 | 1021.2 |
| 20260508150032 | 7 | 138 | 1.6 | 3.2 | 0.00 | 0.08 | 0.03 | 96 | 1021.3 |
| 20260508145509 | 7 | 82 | 0.0 | 4.8 | 0.00 | 0.15 | 0.03 | 96 | 1021.3 |
| 20260508145010 | 7 | 81 | 1.6 | 4.8 | 0.00 | 0.15 | 0.03 | 96 | 1021.3 |
| 20260508144509 | 7 | 78 | 0.0 | 4.8 | 0.00 | 0.15 | 0.03 | 96 | 1021.3 |
| 20260508144010 | 7 | 78 | 0.0 | 3.2 | 0.00 | 0.15 | 0.03 | 96 | 1021.3 |
| 20260508143509 | 7 | 78 | 0.0 | 4.8 | 0.03 | 0.15 | 0.03 | 96 | 1021.3 |
| 20260508143011 | 7 | 124 | 1.6 | 4.8 | 0.03 | 0.15 | 0.03 | 96 | 1021.4 |
| 20260508142508 | 7 | 132 | 0.0 | 4.8 | 0.03 | 0.15 | 0.03 | 96 | 1021.3 |
| 20260508142007 | 7 | 81 | 1.6 | 6.4 | 0.03 | 0.15 | 0.03 | 96 | 1021.3 |
| 20260508141508 | 7 | 92 | 1.6 | 6.4 | 0.03 | 0.15 | 0.03 | 96 | 1021.2 |
| 20260508141006 | 7 | 306 | 1.6 | 4.8 | 0.03 | 0.15 | 0.03 | 97 | 1021.1 |
| 20260508140509 | 7 | 85 | 0.0 | 6.4 | 0.03 | 0.15 | 0.03 | 96 | 1021.2 |
| 20260508140011 | 7 | 307 | 1.6 | 6.4 | 0.03 | 0.15 | 0.03 | 96 | 1021.3 |
| 20260508135505 | 7 | 196 | 0.0 | 4.8 | 0.03 | 0.15 | 0.03 | 96 | 1021.2 |
| 20260508135006 | 7 | 84 | 0.0 | 8.0 | 0.03 | 0.15 | 0.03 | 96 | 1021.2 |
| 20260508134505 | 7 | 62 | 1.6 | 8.0 | 0.03 | 0.15 | 0.03 | 96 | 1021.2 |
| 20260508134008 | 7 | 126 | 1.6 | 6.4 | 0.00 | 0.13 | 0.00 | 95 | 1021.2 |
| 20260508133507 | 7 | 93 | 3.2 | 6.4 | 0.00 | 0.13 | 0.00 | 96 | 1021.2 |
| 20260508133008 | 7 | 94 | 0.0 | 6.4 | 0.00 | 0.13 | 0.00 | 96 | 1021.1 |
| 20260508132504 | 7 | 95 | 1.6 | 6.4 | 0.00 | 0.13 | 0.00 | 97 | 1021.1 |
| 20260508132003 | 7 | 68 | 0.0 | 6.4 | 0.00 | 0.13 | 0.00 | 98 | 1021.2 |
| 20260508131503 | 7 | 57 | 0.0 | 0.0 | 0.00 | 0.13 | 0.00 | 98 | 1021.2 |
| 20260508131005 | 7 | 57 | 0.0 | 4.8 | 0.00 | 0.13 | 0.00 | 97 | 1021.1 |
| 20260508130503 | 7 | 38 | 0.0 | 4.8 | 0.00 | 0.13 | 0.00 | 98 | 1021.2 |
| 20260508130003 | 7 | 82 | 0.0 | 1.6 | 0.00 | 0.13 | 0.00 | 97 | 1021.2 |
| 20260508125502 | 7 | 82 | 0.0 | 6.4 | 0.00 | 0.23 | 0.00 | 97 | 1021.2 |
| 20260508125003 | 7 | 74 | 3.2 | 6.4 | 0.00 | 0.23 | 0.00 | 97 | 1021.1 |
| 20260508124502 | 7 | 81 | 0.0 | 6.4 | 0.00 | 0.23 | 0.00 | 97 | 1021.1 |
| 20260508124002 | 7 | 75 | 0.0 | 4.8 | 0.00 | 0.23 | 0.00 | 97 | 1021.2 |
| 20260508123502 | 7 | 74 | 0.0 | 4.8 | 0.00 | 0.23 | 0.00 | 96 | 1021.3 |
| 20260508123001 | 7 | 72 | 0.0 | 6.4 | 0.00 | 0.23 | 0.00 | 96 | 1021.3 |
| 20260508122600 | 7 | 72 | 0.0 | 4.8 | 0.00 | 0.23 | 0.00 | 96 | 1021.2 |
| 20260508122059 | 7 | 66 | 1.6 | 4.8 | 0.00 | 0.23 | 0.00 | 97 | 1021.2 |
| 20260508121559 | 7 | 127 | 0.0 | 4.8 | 0.00 | 0.23 | 0.00 | 97 | 1021.1 |
| 20260508121058 | 7 | 103 | 0.0 | 4.8 | 0.00 | 0.23 | 0.00 | 97 | 1021.1 |
| 20260508120558 | 7 | 104 | 0.0 | 8.0 | 0.00 | 0.23 | 0.00 | 97 | 1021.1 |
| 20260508120101 | 7 | 58 | 1.6 | 8.0 | 0.00 | 0.23 | 0.00 | 97 | 1021.0 |
| 20260508115601 | 7 | 75 | 0.0 | 4.8 | 0.00 | 0.23 | 0.00 | 97 | 1020.9 |
| 20260508115057 | 7 | 94 | 1.6 | 6.4 | 0.00 | 0.23 | 0.00 | 97 | 1021.1 |
| 20260508114557 | 7 | 57 | 3.2 | 6.4 | 0.00 | 0.23 | 0.00 | 97 | 1021.0 |
| 20260508114057 | 7 | 105 | 1.6 | 4.8 | 0.00 | 0.23 | 0.00 | 96 | 1021.1 |
| 20260508113557 | 7 | 59 | 0.0 | 6.4 | 0.00 | 0.23 | 0.00 | 97 | 1021.0 |
| 20260508113058 | 7 | 77 | 0.0 | 4.8 | 0.00 | 0.23 | 0.00 | 97 | 1021.0 |
| 20260508112556 | 7 | 70 | 0.0 | 4.8 | 0.00 | 0.23 | 0.00 | 97 | 1021.0 |
| 20260508112057 | 7 | 81 | 0.0 | 1.6 | 0.00 | 0.23 | 0.00 | 97 | 1021.1 |
| 20260508111603 | 7 | 81 | 0.0 | 6.4 | 0.00 | 0.23 | 0.00 | 97 | 1021.1 |
| 20260508111056 | 7 | 80 | 1.6 | 8.0 | 0.00 | 0.23 | 0.00 | 96 | 1021.1 |
| 20260508110556 | 7 | 65 | 3.2 | 8.0 | 0.00 | 0.23 | 0.00 | 97 | 1021.1 |
| 20260508105555 | 7 | 265 | 1.6 | 3.2 | 0.00 | 0.23 | 0.00 | 97 | 1021.0 |
| 20260508105055 | 7 | 229 | 0.0 | 3.2 | 0.00 | 0.23 | 0.00 | 97 | 1021.1 |
| 20260508104555 | 7 | 75 | 0.0 | 6.4 | 0.00 | 0.23 | 0.00 | 97 | 1021.0 |
| 20260508104054 | 7 | 75 | 0.0 | 6.4 | 0.00 | 0.23 | 0.00 | 97 | 1021.0 |
| 20260508103553 | 6 | 70 | 0.0 | 6.4 | 0.00 | 0.23 | 0.00 | 97 | 1021.0 |
| 20260508103054 | 7 | 71 | 0.0 | 6.4 | 0.00 | 0.23 | 0.00 | 97 | 1021.0 |
| 20260508102551 | 7 | 56 | 0.0 | 6.4 | 0.00 | 0.23 | 0.00 | 98 | 1021.0 |
| 20260508102051 | 7 | 65 | 1.6 | 6.4 | 0.00 | 0.23 | 0.00 | 98 | 1020.9 |
| 20260508101553 | 7 | 106 | 1.6 | 4.8 | 0.00 | 0.23 | 0.00 | 98 | 1020.9 |
| 20260508101051 | 6 | 89 | 0.0 | 6.4 | 0.00 | 0.23 | 0.00 | 98 | 1020.9 |
| 20260508100549 | 6 | 72 | 1.6 | 6.4 | 0.00 | 0.23 | 0.00 | 98 | 1020.9 |
| 20260508100049 | 6 | 76 | 1.6 | 6.4 | 0.00 | 0.23 | 0.00 | 98 | 1021.0 |
| 20260508095551 | 6 | 70 | 1.6 | 6.4 | 0.00 | 0.25 | 0.00 | 98 | 1021.0 |
| 20260508095049 | 6 | 32 | 1.6 | 4.8 | 0.00 | 0.25 | 0.00 | 98 | 1020.8 |
| 20260508094550 | 6 | 75 | 0.0 | 4.8 | 0.00 | 0.25 | 0.00 | 98 | 1020.8 |
| 20260508094049 | 6 | 67 | 0.0 | 4.8 | 0.00 | 0.25 | 0.00 | 98 | 1020.9 |
| 20260508093551 | 6 | 103 | 0.0 | 4.8 | 0.00 | 0.25 | 0.00 | 98 | 1021.0 |
| 20260508093050 | 6 | 17 | 0.0 | 4.8 | 0.00 | 0.25 | 0.00 | 98 | 1020.8 |
| 20260508092548 | 6 | 204 | 1.6 | 6.4 | 0.00 | 0.25 | 0.00 | 98 | 1021.0 |
| 20260508092046 | 6 | 115 | 1.6 | 9.7 | 0.00 | 0.25 | 0.00 | 98 | 1020.8 |
| 20260508091559 | 6 | 93 | 0.0 | 9.7 | 0.00 | 0.25 | 0.00 | 99 | 1020.8 |
| 20260508091045 | 6 | 216 | 0.0 | 3.2 | 0.00 | 0.25 | 0.00 | 99 | 1020.8 |
| 20260508090545 | 6 | 85 | 0.0 | 1.6 | 0.00 | 0.25 | 0.00 | 99 | 1020.7 |
| 20260508090045 | 6 | 84 | 0.0 | 6.4 | 0.00 | 0.25 | 0.00 | 99 | 1020.7 |
| 20260508085544 | 6 | 74 | 1.6 | 6.4 | 0.00 | 0.25 | 0.00 | 99 | 1020.7 |
| 20260508085046 | 6 | 139 | 1.6 | 4.8 | 0.00 | 0.25 | 0.00 | 99 | 1020.6 |
| 20260508084550 | 6 | 86 | 0.0 | 6.4 | 0.00 | 0.25 | 0.00 | 99 | 1020.6 |
| 20260508084043 | 6 | 82 | 1.6 | 6.4 | 0.00 | 0.25 | 0.00 | 99 | 1020.5 |
| 20260508083542 | 6 | 86 | 0.0 | 4.8 | 0.00 | 0.25 | 0.00 | 99 | 1020.6 |
| 20260508083052 | 6 | 95 | 1.6 | 9.7 | 0.00 | 0.25 | 0.00 | 99 | 1020.4 |
| 20260508082541 | 6 | 63 | 1.6 | 9.7 | 0.00 | 0.25 | 0.00 | 99 | 1020.4 |
| 20260508082041 | 6 | 85 | 1.6 | 9.7 | 0.00 | 0.25 | 0.00 | 99 | 1020.4 |
| 20260508081546 | 6 | 90 | 1.6 | 6.4 | 0.00 | 0.25 | 0.00 | 99 | 1020.4 |
| 20260508081041 | 6 | 67 | 3.2 | 6.4 | 0.00 | 0.25 | 0.00 | 100 | 1020.5 |
| 20260508080541 | 6 | 85 | 0.0 | 6.4 | 0.00 | 0.25 | 0.00 | 100 | 1020.4 |
| 20260508080057 | 6 | 97 | 3.2 | 6.4 | 0.00 | 0.25 | 0.00 | 100 | 1020.3 |
| 20260508075539 | 6 | 99 | 1.6 | 6.4 | 0.00 | 0.36 | 0.00 | 100 | 1020.3 |
| 20260508075038 | 6 | 78 | 1.6 | 6.4 | 0.00 | 0.36 | 0.00 | 100 | 1020.2 |
| 20260508074638 | 6 | 86 | 1.6 | 9.7 | 0.00 | 0.36 | 0.00 | 100 | 1020.1 |
| 20260508074037 | 6 | 73 | 1.6 | 12.9 | 0.00 | 0.36 | 0.00 | 100 | 1020.1 |
| 20260508073537 | 6 | 76 | 3.2 | 14.5 | 0.00 | 0.36 | 0.00 | 100 | 1020.0 |
| 20260508073043 | 6 | 69 | 4.8 | 14.5 | 0.00 | 0.36 | 0.00 | 100 | 1019.9 |
| 20260508072534 | 6 | 100 | 3.2 | 8.0 | 0.00 | 0.36 | 0.00 | 100 | 1020.0 |
| 20260508072034 | 6 | 82 | 1.6 | 9.7 | 0.00 | 0.36 | 0.00 | 100 | 1019.9 |
| 20260508071534 | 6 | 74 | 0.0 | 6.4 | 0.00 | 0.36 | 0.00 | 100 | 1019.8 |
| 20260508071032 | 6 | 69 | 1.6 | 4.8 | 0.00 | 0.36 | 0.00 | 100 | 1019.8 |
| 20260508070531 | 6 | 61 | 0.0 | 4.8 | 0.00 | 0.36 | 0.00 | 100 | 1019.8 |
| 20260508070033 | 6 | 61 | 1.6 | 8.0 | 0.00 | 0.36 | 0.00 | 100 | 1019.6 |
| 20260508065534 | 6 | 31 | 0.0 | 9.7 | 0.00 | 0.41 | 0.00 | 100 | 1019.7 |
| 20260508065029 | 6 | 89 | 0.0 | 9.7 | 0.00 | 0.41 | 0.00 | 100 | 1019.6 |
| 20260508064540 | 5 | 127 | 0.0 | 9.7 | 0.00 | 0.41 | 0.00 | 100 | 1019.5 |
| 20260508064029 | 5 | 127 | 3.2 | 9.7 | 0.00 | 0.41 | 0.00 | 100 | 1019.5 |
| 20260508063528 | 5 | 140 | 1.6 | 9.7 | 0.00 | 0.41 | 0.00 | 100 | 1019.4 |
| 20260508063028 | 5 | 86 | 1.6 | 8.0 | 0.00 | 0.41 | 0.00 | 99 | 1019.4 |
| 20260508062526 | 5 | 74 | 3.2 | 8.0 | 0.00 | 0.41 | 0.00 | 100 | 1019.4 |
| 20260508062026 | 5 | 69 | 1.6 | 6.4 | 0.00 | 0.41 | 0.00 | 100 | 1019.4 |
| 20260508061527 | 5 | 76 | 1.6 | 6.4 | 0.00 | 0.41 | 0.00 | 99 | 1019.4 |
| 20260508061025 | 5 | 76 | 1.6 | 6.4 | 0.00 | 0.41 | 0.00 | 100 | 1019.3 |
| 20260508060524 | 5 | 97 | 1.6 | 6.4 | 0.00 | 0.41 | 0.00 | 99 | 1019.2 |
| 20260508060022 | 5 | 88 | 3.2 | 6.4 | 0.00 | 0.41 | 0.00 | 99 | 1019.1 |
| 20260508055524 | 5 | 158 | 0.0 | 6.4 | 0.00 | 0.43 | 0.00 | 99 | 1019.1 |
| 20260508055022 | 5 | 90 | 1.6 | 4.8 | 0.00 | 0.43 | 0.00 | 99 | 1019.1 |
| 20260508054537 | 5 | 277 | 0.0 | 9.7 | 0.00 | 0.43 | 0.00 | 99 | 1019.0 |
| 20260508054021 | 5 | 99 | 0.0 | 9.7 | 0.00 | 0.43 | 0.00 | 99 | 1018.9 |
| 20260508053521 | 5 | 61 | 1.6 | 8.0 | 0.00 | 0.43 | 0.00 | 99 | 1018.8 |
| 20260508053021 | 5 | 66 | 1.6 | 8.0 | 0.00 | 0.43 | 0.00 | 99 | 1018.9 |
| 20260508052520 | 5 | 121 | 1.6 | 6.4 | 0.00 | 0.43 | 0.00 | 99 | 1018.9 |
| 20260508052019 | 5 | 94 | 1.6 | 6.4 | 0.00 | 0.43 | 0.00 | 99 | 1019.0 |
| 20260508051520 | 5 | 102 | 1.6 | 6.4 | 0.00 | 0.43 | 0.00 | 99 | 1018.8 |
| 20260508051020 | 5 | 275 | 0.0 | 6.4 | 0.00 | 0.43 | 0.00 | 99 | 1019.0 |
| 20260508050518 | 5 | 93 | 1.6 | 6.4 | 0.00 | 0.43 | 0.00 | 99 | 1018.8 |
| 20260508050018 | 5 | 93 | 1.6 | 8.0 | 0.00 | 0.43 | 0.00 | 99 | 1018.7 |